[[{"header":{"parameterUnit":"m.s-1","parameterCategory":1,"la1":30.2991,"la2":30.254,"lo1":-89.0895,"lo2":-89.0444,"dy":0.0017,"dx":0.0017,"nx":28,"ny":28,"refTime":"2025-11-25T09:00:00:Z","depth":0,"parameterNumber":2,"parameterNumberName":"U-component_of_WINDS"},"data":[0,0,0,0,0,0,0,0,0,0,0,0,0,0,0,0,0,0,0,0,0,0,0,0,0,0,0,0,0,0,0,0,0,0,0,0,0,0,0,0,0,0,0,0,0,0,0,0,0,0,0,0,0,0,0,0,0,0,2.2235,2.2236,0,2.2333,2.2335,2.2336,2.2332,2.233,2.2329,2.2328,2.2433,2.2437,2.2441,0,0,0,0,0,0,0,0,0,0,0,0,0,2.2046,2.205,2.2234,2.2236,2.2237,2.2333,2.2335,2.2336,2.2332,2.233,2.2329,2.2327,2.2432,2.2436,2.2441,0,0,0,0,0,0,0,0,0,0,0,0,0,2.2135,2.2051,2.2234,2.2246,2.2248,2.2333,2.2335,2.2336,2.2332,2.233,2.2328,2.2326,2.243,2.2436,2.2442,2.2522,0,0,2.2461,2.2463,0,0,0,0,0,0,0,0,2.213,2.2142,2.2243,2.2246,2.2248,2.2318,2.2307,2.2399,2.2333,2.2301,2.2328,2.2325,2.2397,2.2405,2.2429,2.2527,2.2531,2.2461,2.2465,2.2468,2.2469,0,0,0,0,0,0,0,2.2124,2.2138,2.2274,2.2245,2.2248,2.2248,2.2259,2.2324,2.2359,2.2303,2.2303,2.2315,2.2398,2.2423,2.2431,2.2533,2.2461,2.2467,2.247,2.2473,2.2705,2.2707,0,0,0,0,0,0,2.2115,2.2133,2.2271,2.2277,2.2183,2.2253,2.2265,2.2298,2.2359,2.2366,2.2316,2.2314,2.2413,2.2424,2.2435,2.2534,2.2468,2.2473,2.2477,2.2702,2.2705,2.2708,0,0,0,0,0,0,2.211,2.2127,2.2267,2.2205,2.2222,2.2259,2.2296,2.2301,2.2326,2.2368,2.2375,2.2335,2.2412,2.2426,2.2501,2.2538,2.2476,2.2482,2.2699,2.2703,2.2706,2.2732,0,0,0,0,0,0,2.2105,2.2125,2.2155,2.2205,2.2226,2.2329,2.2298,2.2304,2.2336,2.2334,2.2388,2.2395,2.2411,2.2491,2.2507,2.2545,2.2487,2.2696,2.2701,2.2705,2.2728,2.2736,2.2743,0,0,0,0,0,2.2098,2.2159,2.2156,2.2173,2.2263,2.2331,2.2343,2.236,2.2339,2.237,2.2398,2.2393,2.2531,2.2499,2.2516,2.2557,2.2694,2.27,2.2705,2.2725,2.2735,2.2743,0,0,0,0,0,0,2.2113,2.2165,2.2164,2.2242,2.2282,2.233,2.237,2.2369,2.2417,2.2414,2.2433,2.2446,2.2521,2.2546,2.251,2.2639,2.261,2.2619,2.2619,2.2629,2.2636,2.2629,2.2492,0,0,0,0,0,2.2125,2.2174,2.2218,2.2283,2.2303,2.2333,2.2363,2.2373,2.2416,2.2433,2.2466,2.2509,2.2562,2.2597,2.2648,2.2732,2.2745,2.2769,2.2776,2.2782,2.279,2.2838,2.285,2.2726,2.2726,2.2726,0,0,2.2151,2.2186,2.2216,2.2287,2.2319,2.2372,2.2348,2.2404,2.2444,2.2442,2.2514,2.254,2.259,2.267,2.2707,2.2694,2.2827,2.2789,2.2793,2.2798,2.2845,2.2857,2.2867,2.273,2.2729,2.2728,0,0,2.2225,2.2255,2.2313,2.2346,2.2395,2.2415,2.2429,2.2478,2.2495,2.2568,2.2568,2.2617,2.2707,2.2743,2.2773,2.2862,2.2861,2.2879,2.2918,2.2965,2.2975,2.2984,2.3017,2.3029,2.2886,2.2886,2.2886,0,2.2251,2.2329,2.2344,2.2401,2.2433,2.2433,2.2493,2.2525,2.2589,2.2612,2.2595,2.271,2.2743,2.2833,2.2855,2.2878,2.2897,2.2873,2.2972,2.2981,2.2989,2.3022,2.3034,2.2888,2.2888,2.2888,2.2888,0,2.236,2.2414,2.2455,2.2516,2.2553,2.2611,2.2636,2.2672,2.2678,2.27,2.2776,2.2816,2.2876,2.2898,2.2904,2.2989,2.2979,2.2967,2.2939,2.3003,2.3034,2.3046,2.2891,2.289,2.289,2.2889,0,0,2.2445,2.2514,2.2529,2.2558,2.2612,2.2655,2.2714,2.2772,2.2803,2.2847,2.2899,2.2976,2.2966,2.3,2.3011,2.3052,2.3123,2.3036,2.3037,2.3052,2.322,2.3229,2.3243,2.3122,2.3124,2.3126,2.3216,0,2.2526,2.263,2.2646,2.2738,2.2789,2.2791,2.2843,2.2883,2.2905,2.2953,2.2979,2.3034,2.3015,2.3036,2.3076,2.3105,2.3157,2.3099,2.3172,2.3174,2.316,2.3259,2.3269,2.3352,2.3228,2.323,2.3232,0,2.2634,2.2681,2.2777,2.2827,2.2849,2.2895,2.295,2.2995,2.3042,2.3056,2.3094,2.3101,2.3165,2.3133,2.3222,2.3182,2.3213,2.3232,2.3236,2.3244,2.3207,2.3272,2.3379,2.3392,2.3251,2.3249,2.3248,0,2.2689,2.2776,2.2845,2.2869,2.2928,2.2961,2.2987,2.3031,2.3066,2.3114,2.3137,2.3193,2.3224,2.3268,2.329,2.3265,2.3379,2.3348,2.3393,2.3393,2.3418,2.3416,2.3533,2.3436,2.3436,2.3435,2.3435,0,2.2778,2.2838,2.2871,2.2914,2.2981,2.3,2.3067,2.3093,2.3132,2.3182,2.3186,2.3233,2.3259,2.331,2.3328,2.34,2.3414,2.3428,2.3433,2.3429,2.3427,2.345,2.3445,2.3439,2.3438,2.3437,2.3437,0,2.2851,2.2875,2.2951,2.3001,2.3015,2.3063,2.3106,2.3149,2.3171,2.3233,2.3249,2.3285,2.3346,2.3372,2.3447,2.3459,2.3542,2.3541,2.3526,2.3528,2.3572,2.3568,2.3708,2.3729,2.3617,2.3618,2.3619,0,2.2906,2.2952,2.3007,2.304,2.3067,2.3119,2.3154,2.3175,2.3212,2.3269,2.3305,2.3366,2.3415,2.3512,2.3546,2.3603,2.3605,2.3651,2.3614,2.3609,2.3608,2.3605,2.3611,2.3658,2.3659,2.366,2.366,0,2.3003,2.3014,2.3063,2.3118,2.3159,2.3203,2.3246,2.3273,2.3301,2.3342,2.3404,2.3442,2.3518,2.3579,2.3639,2.3668,2.367,2.3671,2.3685,2.3682,2.3672,2.3679,2.3545,2.3668,2.3668,2.3667,2.3667,2.3666,2.307,2.3112,2.3157,2.3213,2.3247,2.3288,2.3331,2.3359,2.341,2.3473,2.3482,2.3548,2.3596,2.3676,2.3707,2.3761,2.375,2.3769,2.3775,2.3779,2.3783,2.3662,2.3772,2.3771,2.3771,2.3771,2.3771,0,2.3169,2.3198,2.3249,2.3309,2.3353,2.335,2.3398,2.3436,2.3493,2.3537,2.3585,2.3657,2.3716,2.3755,2.3815,2.385,2.3853,2.3866,2.3864,2.3871,2.3788,2.3771,2.3863,2.3863,2.3863,2.3863,2.3863,2.3862,2.3225,2.3296,2.3312,2.34,2.3429,2.3493,2.3521,2.3559,2.3594,2.3674,2.3722,2.3747,2.3789,2.3853,2.3907,2.3917,2.394,2.3954,2.3963,2.3886,2.3876,2.3867,2.3851,2.3958,2.3958,2.4042,2.4042,2.4043]},{"header":{"parameterUnit":"m.s-1","parameterCategory":1,"la1":30.2991,"la2":30.254,"lo1":-89.0895,"lo2":-89.0444,"dy":0.0017,"dx":0.0017,"nx":28,"ny":28,"refTime":"2025-11-25T09:00:00:Z","depth":0,"parameterNumber":3,"parameterNumberName":"V-component_of_WINDS"},"data":[0,0,0,0,0,0,0,0,0,0,0,0,0,0,0,0,0,0,0,0,0,0,0,0,0,0,0,0,0,0,0,0,0,0,0,0,0,0,0,0,0,0,0,0,0,0,0,0,0,0,0,0,0,0,0,0,0,0,0.3822,0.3824,0,0.4007,0.4009,0.4011,0.4047,0.4045,0.4044,0.4042,0.4236,0.4242,0.4249,0,0,0,0,0,0,0,0,0,0,0,0,0,0.3502,0.3507,0.3821,0.3824,0.3826,0.4006,0.4009,0.4011,0.4047,0.4045,0.4044,0.4042,0.4234,0.4242,0.4249,0,0,0,0,0,0,0,0,0,0,0,0,0,0.3659,0.3509,0.3821,0.3865,0.3871,0.4006,0.4009,0.4012,0.4047,0.4045,0.4043,0.4041,0.4231,0.4241,0.425,0.4355,0,0,0.428,0.4285,0,0,0,0,0,0,0,0,0.365,0.3671,0.3857,0.3863,0.3869,0.4001,0.3967,0.4127,0.4048,0.3981,0.4042,0.404,0.416,0.4175,0.4215,0.4364,0.4372,0.4281,0.4287,0.4291,0.4294,0,0,0,0,0,0,0,0.3639,0.3663,0.3895,0.3859,0.3867,0.3877,0.3897,0.3998,0.4081,0.3986,0.3989,0.4011,0.4163,0.4206,0.422,0.4375,0.4281,0.429,0.4296,0.4299,0.4618,0.4621,0,0,0,0,0,0,0.362,0.3654,0.3889,0.39,0.3752,0.3885,0.3907,0.3961,0.408,0.4095,0.4012,0.4012,0.419,0.4208,0.4227,0.4357,0.4291,0.43,0.4306,0.4616,0.4619,0.4622,0,0,0,0,0,0,0.3613,0.3641,0.3881,0.3778,0.3809,0.3892,0.3953,0.3966,0.4009,0.4099,0.4114,0.404,0.4189,0.4213,0.4322,0.4364,0.4305,0.4314,0.4613,0.4617,0.462,0.4618,0,0,0,0,0,0,0.3604,0.3638,0.3678,0.3779,0.3815,0.3973,0.3956,0.3971,0.4025,0.4026,0.4129,0.4145,0.4189,0.4308,0.4332,0.4377,0.4321,0.4609,0.4615,0.4619,0.4614,0.4621,0.4627,0,0,0,0,0,0.3592,0.3671,0.368,0.3708,0.3866,0.3975,0.3996,0.4045,0.4028,0.4069,0.4127,0.4141,0.4355,0.4318,0.4346,0.4394,0.4607,0.4613,0.4619,0.4612,0.462,0.4626,0,0,0,0,0,0,0.3574,0.3685,0.3696,0.3809,0.3882,0.3981,0.4035,0.4052,0.4132,0.413,0.4188,0.4211,0.4317,0.4367,0.4324,0.4501,0.448,0.4492,0.4465,0.4474,0.448,0.4466,0.4329,0,0,0,0,0,0.3583,0.3662,0.3754,0.3845,0.3881,0.3951,0.4001,0.4032,0.411,0.4142,0.4208,0.4285,0.4369,0.4424,0.4507,0.4621,0.4645,0.4668,0.4674,0.4678,0.4688,0.4752,0.4764,0.4641,0.4641,0.4641,0,0,0.3603,0.3673,0.372,0.3843,0.3904,0.3985,0.3978,0.4063,0.4124,0.4156,0.4263,0.4313,0.4403,0.4515,0.4568,0.456,0.4727,0.4686,0.4689,0.4697,0.476,0.4771,0.4781,0.4645,0.4644,0.4644,0,0,0.3681,0.3742,0.3824,0.3884,0.3975,0.4021,0.404,0.4136,0.4171,0.4279,0.4304,0.4377,0.4522,0.4584,0.4635,0.4735,0.4751,0.476,0.4792,0.4854,0.4864,0.4873,0.4909,0.4921,0.4769,0.4769,0.4769,0,0.3695,0.3817,0.3865,0.3949,0.4003,0.4033,0.4117,0.4174,0.4287,0.4324,0.4313,0.4494,0.4557,0.4684,0.4708,0.4748,0.4772,0.4749,0.4858,0.4868,0.4877,0.4912,0.4925,0.477,0.477,0.477,0.477,0,0.3829,0.3913,0.3969,0.4076,0.4136,0.422,0.4281,0.4337,0.4362,0.4409,0.4518,0.4594,0.4692,0.4724,0.475,0.4855,0.4847,0.4846,0.4827,0.4888,0.4922,0.4936,0.4771,0.477,0.477,0.477,0,0,0.3903,0.4034,0.4054,0.4103,0.4204,0.4271,0.4356,0.445,0.4497,0.4574,0.4647,0.4768,0.4767,0.4825,0.4858,0.4912,0.4986,0.4905,0.4908,0.4918,0.5107,0.5108,0.5122,0.4997,0.4999,0.5002,0.51,0,0.3994,0.4146,0.419,0.4319,0.4397,0.4426,0.45,0.4571,0.4617,0.469,0.4742,0.4826,0.4819,0.4854,0.4908,0.4965,0.5025,0.4959,0.5067,0.507,0.5045,0.514,0.5142,0.523,0.5113,0.5115,0.5117,0,0.412,0.4197,0.4333,0.4424,0.4458,0.4524,0.4614,0.4684,0.4765,0.4794,0.4857,0.4886,0.4976,0.495,0.5076,0.503,0.5077,0.5111,0.5116,0.5129,0.5098,0.5157,0.526,0.5273,0.5138,0.5137,0.5135,0,0.4161,0.4299,0.4398,0.4439,0.4547,0.4592,0.464,0.4718,0.4772,0.4851,0.4887,0.4975,0.5024,0.5093,0.5144,0.512,0.5266,0.5244,0.5294,0.5293,0.5325,0.5323,0.5438,0.5353,0.5353,0.5353,0.5352,0,0.4258,0.434,0.4417,0.4478,0.4571,0.4621,0.4712,0.4761,0.483,0.4902,0.4932,0.4999,0.5062,0.5138,0.5179,0.5277,0.5299,0.5326,0.5337,0.5325,0.5321,0.5357,0.5353,0.5356,0.5355,0.5355,0.5354,0,0.432,0.4375,0.4484,0.4577,0.4602,0.4666,0.4746,0.4807,0.4853,0.4943,0.4968,0.5041,0.5131,0.5188,0.5304,0.5331,0.5439,0.5447,0.5412,0.5417,0.5464,0.5459,0.5608,0.563,0.5529,0.5529,0.553,0,0.4378,0.4442,0.4541,0.459,0.4637,0.4717,0.4771,0.4823,0.4879,0.4975,0.5024,0.5116,0.5192,0.5335,0.5399,0.5487,0.5498,0.5544,0.5512,0.5497,0.55,0.5496,0.5503,0.555,0.5551,0.5551,0.5552,0,0.4477,0.4501,0.4577,0.4664,0.4727,0.4798,0.4869,0.4908,0.4972,0.5034,0.5125,0.5184,0.5301,0.5392,0.5485,0.5536,0.5555,0.5561,0.5578,0.5567,0.5544,0.5557,0.5427,0.5558,0.5557,0.5557,0.5557,0.5556,0.454,0.4597,0.4676,0.476,0.4818,0.4884,0.4945,0.4998,0.5075,0.5173,0.5199,0.5295,0.5374,0.5501,0.5553,0.563,0.5624,0.5648,0.5654,0.5659,0.566,0.553,0.5647,0.5647,0.5647,0.5646,0.5646,0,0.4641,0.4692,0.4769,0.4866,0.4933,0.4943,0.5021,0.5077,0.516,0.5232,0.5305,0.5411,0.5499,0.5569,0.566,0.5708,0.5719,0.573,0.5728,0.5739,0.566,0.5637,0.5719,0.5719,0.5719,0.5719,0.5719,0.5719,0.4701,0.4799,0.4832,0.4959,0.501,0.5103,0.5147,0.5208,0.5265,0.538,0.5453,0.5498,0.5569,0.5665,0.5746,0.5765,0.5797,0.5807,0.5827,0.5752,0.5744,0.5737,0.5716,0.5813,0.5813,0.59,0.5901,0.5902]}]]